Time,TemperatureF,DewpointF,PressureIn,WindDirection,WindDirectionDegrees,WindSpeedMPH,WindSpeedGustMPH,Humidity,HourlyPrecipIn,Conditions,Clouds,dailyrainin,SoftwareType,DateUTC
2013-03-04 00:01:00,32.0,32.0,-100.00,WNW,285,9.0,16.0,98,0.10,,,-99.99,,2013-03-04 07:01:00,
2013-03-04 00:11:00,32.0,32.0,-100.00,WNW,290,12.0,19.0,99,0.20,,,-99.99,,2013-03-04 07:11:00,
2013-03-04 00:21:00,32.0,32.0,-100.00,West,280,8.0,14.0,99,0.00,,,-99.99,,2013-03-04 07:21:00,
2013-03-04 00:32:00,32.0,32.0,-100.00,West,265,6.0,12.0,99,0.00,,,-99.99,,2013-03-04 07:32:00,
2013-03-04 00:41:00,32.0,32.0,-100.00,West,280,6.0,9.0,99,0.00,,,-99.99,,2013-03-04 07:41:00,
2013-03-04 00:51:00,32.0,32.0,-100.00,WNW,300,6.0,10.0,99,0.00,,,-99.99,,2013-03-04 07:51:00,
2013-03-04 01:02:00,32.0,32.0,-100.00,WNW,290,4.0,6.0,99,0.00,,,-99.99,,2013-03-04 08:02:00,
2013-03-04 01:11:00,32.0,32.0,-100.00,West,265,2.0,6.0,99,0.00,,,-99.99,,2013-03-04 08:11:00,
2013-03-04 01:21:00,32.0,32.0,-100.00,WSW,255,0.0,4.0,99,0.00,,,-99.99,,2013-03-04 08:21:00,
2013-03-04 01:32:00,32.0,32.0,-100.00,NW,310,0.0,2.0,99,0.00,,,-99.99,,2013-03-04 08:32:00,
2013-03-04 01:42:00,32.0,32.0,-100.00,WSW,240,2.0,4.0,99,0.00,,,-99.99,,2013-03-04 08:42:00,
2013-03-04 01:52:00,32.0,32.0,-100.00,SSW,210,0.0,2.0,99,0.00,,,-99.99,,2013-03-04 08:52:00,
2013-03-04 02:01:00,32.0,32.0,-100.00,SSW,205,0.0,0.0,99,0.00,,,-99.99,,2013-03-04 09:01:00,
2013-03-04 02:11:00,32.0,32.0,-100.00,NNW,340,0.0,2.0,99,0.00,,,-99.99,,2013-03-04 09:11:00,
2013-03-04 02:21:00,32.0,32.0,-100.00,SSW,205,0.0,2.0,99,0.00,,,-99.99,,2013-03-04 09:21:00,
2013-03-04 02:32:00,32.0,32.0,-100.00,SSW,205,0.0,0.0,99,0.00,,,-99.99,,2013-03-04 09:32:00,
2013-03-04 02:42:00,32.0,32.0,-100.00,SSW,205,1.0,1.0,99,0.00,,,-99.99,,2013-03-04 09:42:00,
2013-03-04 02:51:00,32.0,32.0,-100.00,SSW,205,0.0,1.0,99,0.00,,,-99.99,,2013-03-04 09:51:00,
2013-03-04 03:01:00,32.0,32.0,-100.00,SSW,205,0.0,0.0,99,0.00,,,-99.99,,2013-03-04 10:01:00,
2013-03-04 03:11:00,31.0,31.0,-100.00,SSW,205,0.0,0.0,99,0.00,,,-99.99,,2013-03-04 10:11:00,
2013-03-04 03:21:00,31.0,31.0,-100.00,SSW,210,0.0,0.0,99,0.00,,,-99.99,,2013-03-04 10:21:00,
2013-03-04 03:32:00,31.0,31.0,-100.00,SW,215,1.0,2.0,99,0.00,,,-99.99,,2013-03-04 10:32:00,
2013-03-04 03:42:00,31.0,31.0,-100.00,SW,215,0.0,1.0,99,0.00,,,-99.99,,2013-03-04 10:42:00,
2013-03-04 03:52:00,31.0,31.0,-100.00,SSE,155,2.0,3.0,99,0.00,,,-99.99,,2013-03-04 10:52:00,
2013-03-04 04:01:00,32.0,32.0,-100.00,SW,215,0.0,2.0,99,0.00,,,-99.99,,2013-03-04 11:01:00,
2013-03-04 04:11:00,32.0,32.0,-100.00,SSE,165,1.0,3.0,99,0.00,,,-99.99,,2013-03-04 11:11:00,
2013-03-04 04:21:00,31.0,31.0,-100.00,South,180,2.0,2.0,99,0.00,,,-99.99,,2013-03-04 11:21:00,
2013-03-04 04:32:00,31.0,31.0,-100.00,South,180,0.0,2.0,99,0.00,,,-99.99,,2013-03-04 11:32:00,
2013-03-04 04:42:00,31.0,31.0,-100.00,South,180,0.0,0.0,99,0.00,,,-99.99,,2013-03-04 11:42:00,
2013-03-04 04:52:00,31.0,31.0,-100.00,South,180,1.0,1.0,99,0.00,,,-99.99,,2013-03-04 11:52:00,
2013-03-04 05:01:00,31.0,31.0,-100.00,WSW,250,0.0,1.0,99,0.00,,,-99.99,,2013-03-04 12:01:00,
2013-03-04 05:11:00,31.0,31.0,-100.00,South,175,0.0,1.0,99,0.00,,,-99.99,,2013-03-04 12:11:00,
2013-03-04 05:22:00,31.0,31.0,-100.00,WNW,290,8.0,9.0,99,0.00,,,-99.99,,2013-03-04 12:22:00,
2013-03-04 05:32:00,31.0,31.0,-100.00,WNW,285,6.0,9.0,99,0.00,,,-99.99,,2013-03-04 12:32:00,
2013-03-04 05:42:00,31.0,31.0,-100.00,West,280,7.0,9.0,99,0.00,,,-99.99,,2013-03-04 12:42:00,
2013-03-04 05:52:00,31.0,31.0,-100.00,WNW,285,6.0,10.0,99,0.00,,,-99.99,,2013-03-04 12:52:00,
2013-03-04 06:02:00,31.0,31.0,-100.00,West,265,4.0,9.0,99,0.00,,,-99.99,,2013-03-04 13:02:00,
2013-03-04 06:11:00,31.0,31.0,-100.00,SW,230,2.0,7.0,99,0.00,,,-99.99,,2013-03-04 13:11:00,
2013-03-04 06:21:00,31.0,31.0,-100.00,WSW,240,3.0,6.0,99,0.00,,,-99.99,,2013-03-04 13:21:00,
2013-03-04 06:32:00,31.0,31.0,-100.00,West,275,1.0,4.0,99,0.00,,,-99.99,,2013-03-04 13:32:00,
2013-03-04 06:42:00,31.0,31.0,-100.00,SSE,155,1.0,4.0,99,0.00,,,-99.99,,2013-03-04 13:42:00,
2013-03-04 06:51:00,31.0,31.0,-100.00,WNW,285,7.0,10.0,99,0.00,,,-99.99,,2013-03-04 13:51:00,
2013-03-04 07:01:00,31.0,31.0,-100.00,WNW,295,12.0,17.0,99,0.00,,,-99.99,,2013-03-04 14:01:00,
2013-03-04 07:11:00,29.0,29.0,-100.00,WNW,300,16.0,19.0,99,0.00,,,-99.99,,2013-03-04 14:11:00,
2013-03-04 07:22:00,29.0,29.0,-100.00,WNW,300,17.0,19.0,99,0.00,,,-99.99,,2013-03-04 14:22:00,
2013-03-04 07:32:00,29.0,29.0,-100.00,WNW,290,12.0,17.0,99,0.00,,,-99.99,,2013-03-04 14:32:00,
2013-03-04 07:42:00,29.0,29.0,-100.00,WNW,295,11.0,15.0,99,0.00,,,-99.99,,2013-03-04 14:42:00,
2013-03-04 07:52:00,29.0,29.0,-100.00,WNW,295,11.0,13.0,99,0.00,,,-99.99,,2013-03-04 14:52:00,
2013-03-04 08:01:00,29.0,29.0,-100.00,WNW,290,9.0,13.0,99,0.00,,,-99.99,,2013-03-04 15:01:00,
2013-03-04 08:11:00,29.0,29.0,-100.00,WNW,290,7.0,11.0,99,0.00,,,-99.99,,2013-03-04 15:11:00,
2013-03-04 08:21:00,30.0,30.0,-100.00,WNW,295,6.0,9.0,99,0.00,,,-99.99,,2013-03-04 15:21:00,
2013-03-04 08:32:00,30.0,29.0,-100.00,NW,325,6.0,9.0,99,0.00,,,-99.99,,2013-03-04 15:32:00,
2013-03-04 08:42:00,30.0,30.0,-100.00,West,280,5.0,7.0,99,0.00,,,-99.99,,2013-03-04 15:42:00,
2013-03-04 08:51:00,31.0,31.0,-100.00,SW,235,4.0,6.0,99,0.00,,,-99.99,,2013-03-04 15:51:00,
2013-03-04 09:02:00,31.0,31.0,-100.00,West,280,7.0,9.0,99,0.00,,,-99.99,,2013-03-04 16:02:00,
2013-03-04 09:11:00,32.0,32.0,-100.00,WNW,295,4.0,6.0,99,0.00,,,-99.99,,2013-03-04 16:11:00,
2013-03-04 09:21:00,34.0,34.0,-100.00,SE,130,1.0,4.0,99,0.00,,,-99.99,,2013-03-04 16:21:00,
2013-03-04 09:32:00,35.0,35.0,-100.00,WSW,240,2.0,7.0,99,0.00,,,-99.99,,2013-03-04 16:32:00,
2013-03-04 09:42:00,34.0,33.0,-100.00,WSW,250,1.0,4.0,99,0.00,,,-99.99,,2013-03-04 16:42:00,
2013-03-04 09:52:00,33.0,33.0,-100.00,West,280,3.0,6.0,99,0.00,,,-99.99,,2013-03-04 16:52:00,
2013-03-04 10:02:00,33.0,33.0,-100.00,WNW,285,6.0,10.0,99,0.00,,,-99.99,,2013-03-04 17:02:00,
2013-03-04 10:11:00,33.0,33.0,-100.00,WNW,295,12.0,14.0,99,0.00,,,-99.99,,2013-03-04 17:11:00,
2013-03-04 10:22:00,32.0,32.0,-100.00,WNW,285,9.0,14.0,99,0.00,,,-99.99,,2013-03-04 17:22:00,
2013-03-04 10:32:00,32.0,32.0,-100.00,WNW,290,10.0,16.0,99,0.00,,,-99.99,,2013-03-04 17:32:00,
2013-03-04 10:42:00,31.0,31.0,-100.00,WNW,295,15.0,27.0,99,0.00,,,-99.99,,2013-03-04 17:42:00,
2013-03-04 10:52:00,31.0,31.0,-100.00,WNW,295,12.0,21.0,97,0.00,,,-99.99,,2013-03-04 17:52:00,
2013-03-04 11:01:00,33.0,30.0,-100.00,WNW,295,13.0,21.0,87,0.00,,,-99.99,,2013-03-04 18:01:00,
2013-03-04 11:11:00,34.0,28.0,-100.00,WNW,295,10.0,18.0,77,0.00,,,-99.99,,2013-03-04 18:11:00,
2013-03-04 11:21:00,33.0,24.0,-100.00,West,270,16.0,29.0,68,0.00,,,-99.99,,2013-03-04 18:21:00,
2013-03-04 11:32:00,30.0,26.0,-100.00,WNW,300,26.0,39.0,84,0.10,,,-99.99,,2013-03-04 18:32:00,
2013-03-04 11:42:00,30.0,28.0,-100.00,WNW,295,23.0,30.0,92,0.10,,,-99.99,,2013-03-04 18:42:00,
2013-03-04 11:52:00,31.0,29.0,-100.00,West,280,11.0,25.0,93,0.00,,,-99.99,,2013-03-04 18:52:00,
2013-03-04 12:02:00,33.0,31.0,-100.00,West,270,4.0,14.0,92,0.00,,,-99.99,,2013-03-04 19:02:00,
2013-03-04 12:11:00,33.0,31.0,-100.00,WNW,290,17.0,22.0,92,0.00,,,-99.99,,2013-03-04 19:11:00,
2013-03-04 12:21:00,32.0,28.0,-100.00,WNW,290,19.0,31.0,81,0.00,,,-99.99,,2013-03-04 19:21:00,
2013-03-04 12:32:00,33.0,24.0,-100.00,WNW,290,20.0,48.0,70,0.00,,,-99.99,,2013-03-04 19:32:00,
2013-03-04 12:42:00,33.0,23.0,-100.00,WNW,290,24.0,32.0,66,0.00,,,-99.99,,2013-03-04 19:42:00,
2013-03-04 12:51:00,32.0,21.0,-100.00,WNW,295,23.0,31.0,64,0.00,,,-99.99,,2013-03-04 19:51:00,
2013-03-04 13:01:00,30.0,20.0,-100.00,NNW,340,12.0,31.0,65,0.00,,,-99.99,,2013-03-04 20:01:00,
2013-03-04 13:11:00,29.0,19.0,-100.00,North,355,7.0,15.0,65,0.00,,,-99.99,,2013-03-04 20:11:00,
2013-03-04 13:22:00,26.0,17.0,-100.00,North,10,11.0,15.0,66,0.00,,,-99.99,,2013-03-04 20:22:00,
2013-03-04 13:32:00,23.0,16.0,-100.00,NNE,25,15.0,18.0,74,0.10,,,-99.99,,2013-03-04 20:32:00,
2013-03-04 13:42:00,22.0,16.0,-100.00,NNE,25,2.0,17.0,77,0.00,,,-99.99,,2013-03-04 20:42:00,
2013-03-04 13:52:00,23.0,18.0,-100.00,North,0,7.0,15.0,80,0.10,,,-99.99,,2013-03-04 20:52:00,
2013-03-04 14:02:00,22.0,18.0,-100.00,NNE,25,7.0,14.0,82,0.10,,,-99.99,,2013-03-04 21:02:00,
2013-03-04 14:11:00,22.0,18.0,-100.00,NE,35,8.0,11.0,83,0.00,,,-99.99,,2013-03-04 21:11:00,
2013-03-04 14:21:00,24.0,19.0,-100.00,North,10,7.0,15.0,82,0.00,,,-99.99,,2013-03-04 21:21:00,
2013-03-04 14:32:00,24.0,19.0,-100.00,North,10,7.0,12.0,80,0.00,,,-99.99,,2013-03-04 21:32:00,
2013-03-04 14:42:00,24.0,18.0,-100.00,North,355,6.0,14.0,76,0.00,,,-99.99,,2013-03-04 21:42:00,
2013-03-04 14:52:00,24.0,16.0,-100.00,WNW,300,4.0,9.0,71,0.00,,,-99.99,,2013-03-04 21:52:00,
2013-03-04 15:01:00,25.0,16.0,-100.00,North,0,6.0,11.0,68,0.00,,,-99.99,,2013-03-04 22:01:00,
2013-03-04 15:12:00,25.0,14.0,-100.00,North,0,7.0,12.0,63,0.00,,,-99.99,,2013-03-04 22:12:00,
2013-03-04 15:22:00,25.0,12.0,-100.00,NNE,20,9.0,19.0,56,0.00,,,-99.99,,2013-03-04 22:22:00,
2013-03-04 15:32:00,25.0,11.0,-100.00,West,270,12.0,19.0,53,0.00,,,-99.99,,2013-03-04 22:32:00,
2013-03-04 15:42:00,26.0,9.0,-100.00,WNW,295,14.0,19.0,49,0.00,,,-99.99,,2013-03-04 22:42:00,
2013-03-04 15:52:00,25.0,8.0,-100.00,NW,315,11.0,17.0,47,0.00,,,-99.99,,2013-03-04 22:52:00,
2013-03-04 16:01:00,25.0,7.0,-100.00,WNW,295,15.0,22.0,46,0.00,,,-99.99,,2013-03-04 23:01:00,
2013-03-04 16:11:00,25.0,7.0,-100.00,WNW,295,12.0,26.0,45,0.00,,,-99.99,,2013-03-04 23:11:00,
2013-03-04 16:22:00,25.0,7.0,-100.00,West,260,11.0,22.0,45,0.00,,,-99.99,,2013-03-04 23:22:00,
2013-03-04 16:32:00,26.0,7.0,-100.00,WSW,250,4.0,14.0,45,0.00,,,-99.99,,2013-03-04 23:32:00,
2013-03-04 16:42:00,26.0,7.0,-100.00,West,280,8.0,19.0,44,0.00,,,-99.99,,2013-03-04 23:42:00,
2013-03-04 16:52:00,25.0,7.0,-100.00,WNW,290,13.0,21.0,45,0.00,,,-99.99,,2013-03-04 23:52:00,
2013-03-04 17:02:00,25.0,6.0,-100.00,WNW,300,16.0,24.0,45,0.00,,,-99.99,,2013-03-05 00:02:00,
2013-03-04 17:11:00,25.0,7.0,-100.00,WNW,295,14.0,24.0,46,0.00,,,-99.99,,2013-03-05 00:11:00,
2013-03-04 17:21:00,24.0,7.0,-100.00,WNW,290,10.0,16.0,46,0.00,,,-99.99,,2013-03-05 00:21:00,
2013-03-04 17:32:00,24.0,6.0,-100.00,WNW,300,8.0,14.0,46,0.00,,,-99.99,,2013-03-05 00:32:00,
2013-03-04 17:42:00,24.0,6.0,-100.00,NE,35,2.0,14.0,46,0.00,,,-99.99,,2013-03-05 00:42:00,
2013-03-04 17:51:00,24.0,7.0,-100.00,North,5,5.0,7.0,47,0.00,,,-99.99,,2013-03-05 00:51:00,
2013-03-04 18:01:00,23.0,7.0,-100.00,NNE,30,4.0,6.0,48,0.00,,,-99.99,,2013-03-05 01:01:00,
2013-03-04 18:12:00,22.0,6.0,-100.00,SW,225,1.0,2.0,48,0.00,,,-99.99,,2013-03-05 01:12:00,
2013-03-04 18:21:00,21.0,5.0,-100.00,South,180,2.0,7.0,49,0.00,,,-99.99,,2013-03-05 01:21:00,
2013-03-04 18:32:00,19.0,4.0,-100.00,ESE,110,1.0,2.0,51,0.00,,,-99.99,,2013-03-05 01:32:00,
2013-03-04 18:41:00,18.0,4.0,-100.00,NNE,20,4.0,6.0,53,0.00,,,-99.99,,2013-03-05 01:41:00,
2013-03-04 18:51:00,20.0,7.0,-100.00,NNE,30,5.0,9.0,56,0.00,,,-99.99,,2013-03-05 01:51:00,
2013-03-04 19:01:00,20.0,7.0,-100.00,NNE,15,2.0,9.0,56,0.00,,,-99.99,,2013-03-05 02:01:00,
2013-03-04 19:11:00,20.0,7.0,-100.00,North,355,4.0,6.0,56,0.00,,,-99.99,,2013-03-05 02:11:00,
2013-03-04 19:21:00,20.0,7.0,-100.00,NNE,20,4.0,9.0,57,0.00,,,-99.99,,2013-03-05 02:21:00,
2013-03-04 19:32:00,18.0,6.0,-100.00,South,170,1.0,4.0,57,0.00,,,-99.99,,2013-03-05 02:32:00,
2013-03-04 19:42:00,17.0,5.0,-100.00,North,10,1.0,3.0,58,0.00,,,-99.99,,2013-03-05 02:42:00,
2013-03-04 19:52:00,15.0,4.0,-100.00,NE,45,0.0,1.0,59,0.00,,,-99.99,,2013-03-05 02:52:00,
2013-03-04 20:02:00,15.0,4.0,-100.00,ESE,120,1.0,4.0,60,0.00,,,-99.99,,2013-03-05 03:02:00,
2013-03-04 20:12:00,14.0,3.0,-100.00,East,80,0.0,2.0,61,0.00,,,-99.99,,2013-03-05 03:12:00,
2013-03-04 20:22:00,12.0,2.0,-100.00,SE,135,1.0,2.0,63,0.00,,,-99.99,,2013-03-05 03:22:00,
2013-03-04 20:32:00,12.0,2.0,-100.00,ESE,105,2.0,2.0,63,0.00,,,-99.99,,2013-03-05 03:32:00,
2013-03-04 20:42:00,11.0,2.0,-100.00,SE,130,3.0,4.0,65,0.00,,,-99.99,,2013-03-05 03:42:00,
2013-03-04 20:52:00,11.0,2.0,-100.00,SSE,150,2.0,3.0,66,0.00,,,-99.99,,2013-03-05 03:52:00,
2013-03-04 21:01:00,10.0,1.0,-100.00,SE,125,2.0,3.0,67,0.00,,,-99.99,,2013-03-05 04:01:00,
2013-03-04 21:11:00,9.0,1.0,-100.00,ESE,120,4.0,6.0,69,0.00,,,-99.99,,2013-03-05 04:11:00,
2013-03-04 21:22:00,8.0,1.0,-100.00,ESE,120,2.0,5.0,70,0.00,,,-99.99,,2013-03-05 04:22:00,
2013-03-04 21:32:00,8.0,1.0,-100.00,SE,125,3.0,4.0,71,0.00,,,-99.99,,2013-03-05 04:32:00,
2013-03-04 21:42:00,9.0,2.0,-100.00,ESE,105,2.0,5.0,72,0.00,,,-99.99,,2013-03-05 04:42:00,
2013-03-04 21:52:00,8.0,2.0,-100.00,ESE,105,3.0,4.0,74,0.00,,,-99.99,,2013-03-05 04:52:00,
2013-03-04 22:02:00,8.0,1.0,-100.00,ESE,120,4.0,5.0,74,0.00,,,-99.99,,2013-03-05 05:02:00,
2013-03-04 22:12:00,8.0,2.0,-100.00,ESE,115,4.0,7.0,76,0.00,,,-99.99,,2013-03-05 05:12:00,
2013-03-04 22:22:00,7.0,1.0,-100.00,ESE,105,5.0,6.0,77,0.00,,,-99.99,,2013-03-05 05:22:00,
2013-03-04 22:32:00,7.0,1.0,-100.00,SE,125,4.0,6.0,78,0.00,,,-99.99,,2013-03-05 05:32:00,
2013-03-04 22:42:00,5.0,0.0,-100.00,ESE,110,6.0,7.0,79,0.00,,,-99.99,,2013-03-05 05:42:00,
2013-03-04 22:52:00,6.0,1.0,-100.00,ESE,105,4.0,7.0,80,0.00,,,-99.99,,2013-03-05 05:52:00,
2013-03-04 23:01:00,5.0,1.0,-100.00,SE,125,4.0,6.0,80,0.00,,,-99.99,,2013-03-05 06:01:00,
2013-03-04 23:11:00,4.0,-1.0,-100.00,ESE,105,6.0,7.0,81,0.00,,,-99.99,,2013-03-05 06:11:00,
2013-03-04 23:22:00,3.0,-1.0,-100.00,ESE,105,7.0,7.0,82,0.00,,,-99.99,,2013-03-05 06:22:00,
2013-03-04 23:32:00,3.0,-1.0,-100.00,East,100,4.0,8.0,82,0.00,,,-99.99,,2013-03-05 06:32:00,
2013-03-04 23:42:00,3.0,-1.0,-100.00,East,90,6.0,7.0,82,0.00,,,-99.99,,2013-03-05 06:42:00,
2013-03-04 23:52:00,2.0,-1.0,-100.00,ESE,110,6.0,8.0,83,0.00,,,-99.99,,2013-03-05 06:52:00,